TimeCDT,TemperatureF,Dew PointF,Humidity,Sea Level PressureIn,VisibilityMPH,Wind Direction,Wind SpeedMPH,Gust SpeedMPH,PrecipitationIn,Events,Conditions,WindDirDegrees,DateUTC
12:34 AM,39.2,30.2,70,30.29,1.8,Calm,Calm,-,N/A,,Haze,0,2012-10-29 05:34:00
12:49 AM,39.2,30.2,70,30.28,4.0,Calm,Calm,-,N/A,,Haze,0,2012-10-29 05:49:00
12:52 AM,39.9,32.0,73,30.29,7.0,Calm,Calm,-,N/A,,Overcast,0,2012-10-29 05:52:00
1:52 AM,41.0,32.0,70,30.29,10.0,Calm,Calm,-,N/A,,Overcast,0,2012-10-29 06:52:00
2:52 AM,41.0,33.1,73,30.29,10.0,Calm,Calm,-,N/A,,Overcast,0,2012-10-29 07:52:00
3:52 AM,41.0,32.0,70,30.29,10.0,East,5.8,-,N/A,,Mostly Cloudy,80,2012-10-29 08:52:00
4:52 AM,37.9,30.9,76,30.27,10.0,South,3.5,-,N/A,,Scattered Clouds,170,2012-10-29 09:52:00
5:52 AM,37.0,30.0,76,30.30,10.0,Calm,Calm,-,N/A,,Clear,0,2012-10-29 10:52:00
6:52 AM,36.0,28.9,76,30.30,10.0,Calm,Calm,-,N/A,,Clear,0,2012-10-29 11:52:00
7:52 AM,35.1,30.9,85,30.32,10.0,NE,5.8,-,N/A,,Overcast,40,2012-10-29 12:52:00
9:52 AM,46.9,34.0,61,30.34,10.0,South,4.6,-,N/A,,Clear,170,2012-10-29 14:52:00
10:52 AM,52.0,32.0,47,30.31,10.0,South,11.5,-,N/A,,Clear,170,2012-10-29 15:52:00
11:52 AM,55.9,30.9,39,30.29,10.0,South,11.5,-,N/A,,Clear,170,2012-10-29 16:52:00
12:52 PM,59.0,28.9,32,30.27,10.0,South,10.4,-,N/A,,Clear,170,2012-10-29 17:52:00
1:52 PM,62.1,28.9,29,30.22,10.0,South,10.4,-,N/A,,Clear,190,2012-10-29 18:52:00
2:52 PM,63.0,28.9,28,30.18,10.0,South,10.4,-,N/A,,Clear,190,2012-10-29 19:52:00
3:52 PM,63.0,27.0,26,30.17,10.0,SW,8.1,-,N/A,,Clear,230,2012-10-29 20:52:00
6:52 PM,54.0,30.0,40,30.14,10.0,SSE,6.9,-,N/A,,Clear,150,2012-10-29 23:52:00
7:52 PM,52.0,30.9,45,30.14,10.0,SSE,4.6,-,N/A,,Clear,150,2012-10-30 00:52:00
8:52 PM,50.0,30.0,46,30.14,10.0,SE,5.8,-,N/A,,Clear,140,2012-10-30 01:52:00
9:52 PM,46.9,30.9,54,30.13,10.0,SE,3.5,-,N/A,,Clear,140,2012-10-30 02:52:00
10:52 PM,43.0,30.9,62,30.12,10.0,Calm,Calm,-,N/A,,Clear,0,2012-10-30 03:52:00
11:52 PM,39.0,32.0,76,30.11,10.0,ESE,3.5,-,N/A,,Clear,120,2012-10-30 04:52:00